Location: Lone Wolf Observatory
(41.0360°N, 89.2260°W)
Time: 11:19:19
(UTC-05:00)

Amateur Radio Satellites - All Passes

Search period start: 29 June 2016 10:49
Search period end: 30 June 2016 10:49
Location: Lone Wolf Observatory, 41.0360°N, 89.2260°W

Satellite Date Start Highest point End Downlink Frequencies (MHz)
Time Altitude Azimuth
ANTELSAT 29 Jun 10:54:13 10:58:23 49° 261° (W) 11:02:40 437.575/2403.000
AAUSAT CUBESAT 2 29 Jun 10:55:43 10:58:08 15° 295° (WNW) 11:00:32 437.432
PCSat 29 Jun 10:58:25 11:03:39 46° 55° (NE) 11:08:51 145.827
DELFI C3 29 Jun 10:59:22 11:03:20 68° 285° (WNW) 11:07:16 145.870
ZACube-1 29 Jun 11:05:01 11:09:04 33° 290° (WNW) 11:13:10 437.345
BEESAT 3 29 Jun 11:05:25 11:09:13 43° 53° (NE) 11:12:59 437.485
JAS-2 29 Jun 11:11:23 11:16:30 21° 60° (ENE) 11:21:18 435.910
M-CUBED/EXP-1 PRIME 29 Jun 11:12:02 11:15:06 22° 296° (WNW) 11:18:18 437.505
Oscar 11 29 Jun 11:13:47 11:17:19 24° 292° (WNW) 11:20:49 145.826/435.025
FUNcube-1 29 Jun 11:22:29 11:26:06 24° 293° (WNW) 11:29:44 145.935
YUBILEINY 29 Jun 11:25:27 11:30:43 18° 77° (ENE) 11:36:00 435.215
CUBEBUG 1 29 Jun 11:26:49 11:28:04 11° 90° (E) 11:29:19 437.445
UWE-3 29 Jun 11:29:15 11:31:39 14° 297° (WNW) 11:34:05 435.000/436.395/437.385
BUGSAT 1 29 Jun 11:30:36 11:33:57 26° 69° (ENE) 11:37:18 437.445
ISS 29 Jun 11:31:20 11:33:06 14° 353° (N) 11:34:52 145.825
VELOX 1 29 Jun 11:36:19 11:38:28 13° 91° (E) 11:40:36 145.980
O/OREOS (USA 219) 29 Jun 11:36:26 11:39:34 18° 55° (NE) 11:42:42 437.305
Cosmos 2491 29 Jun 11:37:02 11:45:33 54° 77° (ENE) 11:54:00 435.465 / 435.565
BEESAT 2 29 Jun 11:44:50 11:48:48 63° 56° (NE) 11:52:45 435.950
TIGRISAT 29 Jun 11:47:46 11:50:09 15° 269° (W) 11:52:35 435.000
HO-68 29 Jun 11:49:29 11:50:23 10° 313° (NW) 11:51:16 435.675
NANOSAT C BR1 29 Jun 11:52:32 11:56:41 70° 257° (WSW) 12:00:53 145.865
UNISAT 6 29 Jun 11:54:04 11:55:41 12° 270° (W) 11:57:20 437.425
QB50P1 29 Jun 11:56:05 12:00:12 60° 259° (W) 12:04:22 145.935-145.965
POPSAT HIP 1 29 Jun 11:59:25 12:03:31 55° 259° (W) 12:07:40 437.405
PHONESAT 2.4 29 Jun 11:59:28 12:01:37 17° 209° (SSW) 12:03:45 2401.200-2431.200
Oscar 19 29 Jun 12:06:20 12:08:54 14° 60° (ENE) 12:11:28 437.125/150
HUMSAT D 29 Jun 12:11:09 12:14:43 26° 292° (WNW) 12:18:16 437.325/437.525
UKube-1 29 Jun 12:11:47 12:14:58 20° 94° (E) 12:18:08 .
QB50P2 29 Jun 12:12:15 12:16:08 37° 262° (W) 12:20:04 145.880/145.840
SPROUT 29 Jun 12:12:16 12:14:38 14° 92° (E) 12:17:00 437.525
DUCHIFAT 1 29 Jun 12:12:57 12:16:54 42° 261° (W) 12:20:54 145.980
ESTCUBE 1 29 Jun 12:14:54 12:19:21 60° 101° (E) 12:23:47 437.505/2401.250
POLYITAN 1 29 Jun 12:14:55 12:18:46 36° 262° (W) 12:22:40 437.675
AISAT 29 Jun 12:15:40 12:19:47 38° 98° (E) 12:23:52 437.250
RS-15 29 Jun 12:17:19 12:28:42 85° 120° (ESE) 12:40:48 29.354- 29.394
Gurwin Techsat 1B 29 Jun 12:31:49 12:33:01 11° 57° (ENE) 12:34:14 435.225
DX 1 29 Jun 12:32:36 12:36:44 42° 99° (E) 12:40:51 434.975-435.025
AIST 2 29 Jun 12:34:56 12:37:28 16° 42° (NE) 12:40:01 435.215
PCSat 29 Jun 12:42:24 12:46:45 25° 253° (WSW) 12:51:04 145.827
BEESAT 3 29 Jun 12:44:04 12:46:33 16° 249° (WSW) 12:49:02 437.485
JAS-2 29 Jun 12:53:09 13:00:51 83° 256° (WSW) 13:07:51 435.910
50 SAT 29 Jun 13:00:02 13:03:38 52° 286° (WNW) 13:07:12 437.505
CUBEBUG 1 29 Jun 13:00:29 13:04:45 63° 286° (WNW) 13:09:02 437.445
BUGSAT 1 29 Jun 13:06:03 13:09:17 23° 265° (W) 13:12:31 437.445
ISS 29 Jun 13:08:25 13:10:34 16° 14° (NNE) 13:12:42 145.825
VELOX 1 29 Jun 13:10:57 13:15:15 54° 287° (WNW) 13:19:32 145.980
O/OREOS (USA 219) 29 Jun 13:14:56 13:19:13 46° 253° (WSW) 13:23:31 437.305
YUBILEINY 29 Jun 13:17:30 13:26:13 89° 280° (W) 13:35:02 435.215
BEESAT 2 29 Jun 13:24:53 13:26:06 11° 252° (WSW) 13:27:18 435.950
TISAT 1 29 Jun 13:28:18 13:31:48 25° 95° (E) 13:35:17 437.305
Cosmos 2491 29 Jun 13:34:32 13:41:56 33° 276° (W) 13:49:20 435.465 / 435.565
Oscar 19 29 Jun 13:42:24 13:47:33 77° 257° (WSW) 13:52:43 437.125/150
SPROUT 29 Jun 13:46:42 13:50:50 48° 287° (WNW) 13:54:57 437.525
UKube-1 29 Jun 13:47:10 13:51:06 35° 290° (WNW) 13:55:01 .
Cosmos 2504 29 Jun 13:50:41 13:58:25 50° 89° (E) 14:06:39 435.465 / 435.565
AISAT 29 Jun 13:52:48 13:55:59 20° 294° (WNW) 13:59:10 437.250
ESTCUBE 1 29 Jun 13:53:19 13:55:39 14° 297° (WNW) 13:57:59 437.505/2401.250
Gurwin Techsat 1B 29 Jun 14:06:46 14:12:04 78° 74° (ENE) 14:17:24 435.225
ITAMSAT 1 29 Jun 14:07:45 14:12:13 30° 66° (ENE) 14:16:43 435.822/435.867
DX 1 29 Jun 14:09:42 14:12:36 18° 295° (WNW) 14:15:30 434.975-435.025
AIST 2 29 Jun 14:12:15 14:16:23 66° 240° (WSW) 14:20:30 435.215
SWISSCUBE 29 Jun 14:22:03 14:25:38 21° 94° (E) 14:29:13 437.505
RS-15 29 Jun 14:32:19 14:42:43 36° 326° (NNW) 14:53:38 29.354- 29.394
AO-7 29 Jun 14:38:42 14:46:13 40° 60° (ENE) 14:53:47 29.400- 29.500
JAS-2 29 Jun 14:42:33 14:46:31 15° 271° (W) 14:50:22 435.910
ISS 29 Jun 14:44:20 14:47:33 55° 32° (NNE) 14:50:46 145.825
BEESAT 29 Jun 14:46:39 14:51:00 33° 97° (E) 14:55:18 436.000
ITUPSAT 1 29 Jun 14:48:21 14:52:43 34° 97° (E) 14:57:03 437.325
TISAT 1 29 Jun 15:03:50 15:07:24 27° 291° (WNW) 15:10:57 437.305
YUBILEINY 29 Jun 15:18:34 15:24:20 19° 298° (WNW) 15:30:09 435.215
SO-50 29 Jun 15:20:11 15:24:37 36° 115° (ESE) 15:29:04 436.795
HORYU 2 29 Jun 15:44:35 15:46:56 14° 62° (ENE) 15:49:17 437.375
Cosmos 2504 29 Jun 15:44:39 15:52:02 36° 290° (WNW) 15:59:52 435.465 / 435.565
ITAMSAT 1 29 Jun 15:46:52 15:51:34 34° 263° (W) 15:56:19 435.822/435.867
Gurwin Techsat 1B 29 Jun 15:50:21 15:52:36 13° 271° (W) 15:54:51 435.225
SWISSCUBE 29 Jun 15:59:05 16:03:35 41° 290° (WNW) 16:08:03 437.505
ISS 29 Jun 16:21:33 16:23:42 16° 229° (SW) 16:25:50 145.825
BEESAT 29 Jun 16:24:40 16:28:38 26° 293° (WNW) 16:32:35 436.000
ITUPSAT 1 29 Jun 16:26:25 16:30:24 26° 293° (WNW) 16:34:20 437.325
AO-7 29 Jun 16:30:49 16:38:47 49° 259° (W) 16:46:51 29.400- 29.500
AIST 1 29 Jun 16:49:25 16:53:25 38° 92° (E) 16:57:24
RS-15 29 Jun 16:51:30 17:00:21 22° 1° (N) 17:09:22 29.354- 29.394
MOZHAYETS 4 29 Jun 16:53:30 16:58:10 80° 103° (ESE) 17:02:47
KKS-1 29 Jun 16:55:27 16:59:56 90° 222° (SW) 17:04:23 437.445
CUTE-I 29 Jun 16:57:34 17:00:25 15° 59° (ENE) 17:03:16 437.470
SO-50 29 Jun 17:00:47 17:05:09 31° 312° (NW) 17:09:30 436.795
HORYU 2 29 Jun 17:18:38 17:22:59 58° 259° (W) 17:27:24 437.375
NOAA 15 29 Jun 17:20:06 17:24:42 31° 67° (ENE) 17:29:18 137.62
GONETS M04 29 Jun 17:21:48 17:28:16 24° 80° (E) 17:34:43
STARS 29 Jun 17:24:37 17:29:03 86° 279° (W) 17:33:27 437.465
DOVE 4 29 Jun 17:54:55 17:55:03 10° 62° (ENE) 17:55:11 437.250
LilacSat-2 29 Jun 17:55:50 17:59:16 34° 72° (ENE) 18:02:45 437.200
Cubesat XI-IV 29 Jun 18:00:38 18:05:47 52° 71° (ENE) 18:10:59 437.490
NOAA 18 29 Jun 18:04:05 18:09:28 63° 72° (ENE) 18:14:55 137.9125
BRITE-PL 29 Jun 18:05:18 18:10:20 74° 75° (ENE) 18:14:58 437.365/2234.400
Cosmos 2499 29 Jun 18:23:48 18:31:24 41° 86° (E) 18:39:24 435.465 / 435.565
CUBESAT XI-V 29 Jun 18:24:09 18:28:47 85° 101° (E) 18:33:23 437.345
AIST 1 29 Jun 18:28:16 18:31:10 17° 288° (WNW) 18:34:05
MOZHAYETS 4 29 Jun 18:33:12 18:34:39 11° 299° (WNW) 18:36:06
GOMX 1 29 Jun 18:33:27 18:38:00 64° 75° (ENE) 18:42:18 467.674
CUTE-I 29 Jun 18:34:25 18:39:46 79° 257° (WSW) 18:45:10 437.470
HO-68 29 Jun 18:39:41 18:45:02 23° 57° (ENE) 18:50:24 435.675
CUSAT 1 29 Jun 18:55:13 18:58:44 66° 264° (W) 19:01:35 437.405
NOAA 15 29 Jun 18:59:38 19:04:23 33° 263° (W) 19:09:09 137.62
RS-15 29 Jun 19:06:48 19:17:55 37° 35° (NE) 19:29:01 29.354- 29.394
CANX-2 29 Jun 19:12:31 19:15:46 21° 67° (ENE) 19:19:02 2200.000
GONETS M04 29 Jun 19:15:33 19:24:13 71° 280° (W) 19:32:55
DOVE 4 29 Jun 19:27:54 19:32:13 73° 258° (WSW) 19:36:24 437.250
DANDE 29 Jun 19:28:29 19:33:20 86° 263° (W) 19:36:55 436.750
LilacSat-2 29 Jun 19:31:24 19:33:42 15° 268° (W) 19:36:01 437.200
CUTE 1.7 + AOD 2 29 Jun 19:31:44 19:35:27 29° 70° (ENE) 19:39:11 437.475
SEEDS 29 Jun 19:33:55 19:37:15 23° 68° (ENE) 19:40:36 437.485
Cubesat XI-IV 29 Jun 19:42:17 19:46:09 20° 267° (W) 19:50:02 437.490
NOAA 18 29 Jun 19:47:08 19:50:34 17° 268° (W) 19:54:02 137.9125
BRITE-PL 29 Jun 19:47:34 19:49:10 11° 269° (W) 19:50:44 437.365/2234.400
CUBEBUG 2 29 Jun 20:04:14 20:07:31 23° 67° (ENE) 20:10:52 437.445
CUBESAT XI-V 29 Jun 20:04:31 20:05:27 11° 300° (WNW) 20:06:23 437.345
AAUSAT CUBESAT 2 29 Jun 20:09:05 20:12:46 30° 70° (ENE) 20:16:28 437.432
STRAND 1 29 Jun 20:13:37 20:18:47 72° 102° (ESE) 20:23:55 437.568
CINEMA 3 29 Jun 20:14:35 20:18:43 80° 257° (WSW) 20:22:54 145.822/145.860
GOMX 1 29 Jun 20:14:58 20:16:26 11° 269° (W) 20:17:52 467.674
Cosmos 2499 29 Jun 20:16:30 20:24:24 45° 287° (WNW) 20:32:46 435.465 / 435.565
M-CUBED/EXP-1 PRIME 29 Jun 20:24:30 20:27:26 32° 67° (ENE) 20:30:25 437.505
HO-68 29 Jun 20:24:56 20:32:04 72° 256° (WSW) 20:39:16 435.675
ZACube-1 29 Jun 20:25:31 20:28:23 18° 65° (ENE) 20:31:19 437.345
Oscar 11 29 Jun 20:32:19 20:35:46 23° 68° (ENE) 20:39:14 145.826/435.025
FUNcube-1 29 Jun 20:41:41 20:45:09 25° 68° (ENE) 20:48:39 145.935
COMPASS 1 29 Jun 20:43:51 20:48:03 84° 255° (WSW) 20:52:18 437.405
CANX-2 29 Jun 20:47:32 20:51:25 33° 263° (W) 20:55:20 2200.000
UWE-3 29 Jun 20:48:04 20:52:05 47° 73° (ENE) 20:56:13 435.000/436.395/437.385
AO-85 29 Jun 20:50:48 20:55:42 35° 114° (ESE) 21:00:28 145.980
PRISM 29 Jun 20:54:07 20:57:36 26° 96° (E) 21:01:02 437.425
CUTE 1.7 + AOD 2 29 Jun 21:07:49 21:11:16 23° 266° (W) 21:14:44 437.475
SEEDS 29 Jun 21:09:01 21:12:47 31° 264° (W) 21:16:35 437.485
AUBIESAT-1 29 Jun 21:18:06 21:21:20 53° 254° (WSW) 21:24:36 437.475
GONETS M04 29 Jun 21:18:42 21:22:49 14° 302° (WNW) 21:26:56
RS-15 29 Jun 21:19:31 21:31:55 83° 241° (WSW) 21:44:08 29.354- 29.394
HUMSAT D 29 Jun 21:27:08 21:30:09 20° 66° (ENE) 21:33:12 437.325/437.525
CUBEBUG 2 29 Jun 21:40:21 21:44:00 29° 264° (W) 21:47:44 437.445
DELFI C3 29 Jun 21:44:39 21:48:38 65° 75° (ENE) 21:52:39 145.870
AAUSAT CUBESAT 2 29 Jun 21:45:00 21:48:16 22° 266° (W) 21:51:33 437.432
STRAND 1 29 Jun 21:54:30 21:57:20 15° 300° (WNW) 22:00:10 437.568
ZACube-1 29 Jun 22:00:25 22:04:21 39° 262° (W) 22:08:25 437.345
M-CUBED/EXP-1 PRIME 29 Jun 22:00:53 22:02:10 12° 262° (W) 22:03:29 437.505
TIGRISAT 29 Jun 22:02:49 22:04:10 11° 89° (E) 22:05:31 435.000
UNISAT 6 29 Jun 22:07:30 22:09:51 14° 90° (E) 22:12:14 437.425
Oscar 11 29 Jun 22:07:53 22:11:44 31° 264° (W) 22:15:37 145.826/435.025
FUNcube-1 29 Jun 22:17:41 22:21:17 27° 265° (W) 22:24:58 145.935
HO-68 29 Jun 22:19:07 22:20:56 11° 274° (W) 22:22:46 435.675
CUBEBUG 1 29 Jun 22:23:59 22:24:35 10° 61° (ENE) 22:25:12 437.445
UWE-3 29 Jun 22:26:34 22:28:51 14° 269° (W) 22:31:09 435.000/436.395/437.385
PRISM 29 Jun 22:29:30 22:32:48 24° 292° (WNW) 22:36:04 437.425
AO-85 29 Jun 22:31:10 22:36:10 37° 310° (NW) 22:41:00 145.980
VELOX 1 29 Jun 22:34:10 22:36:11 13° 62° (ENE) 22:38:11 145.980
ANTELSAT 29 Jun 22:45:43 22:49:59 34° 97° (E) 22:54:15 437.575/2403.000
HUMSAT D 29 Jun 23:01:41 23:05:31 35° 263° (W) 23:09:25 437.325/437.525
UKube-1 29 Jun 23:06:39 23:09:32 18° 65° (ENE) 23:12:25 .
SPROUT 29 Jun 23:06:59 23:08:30 12° 62° (ENE) 23:10:02 437.525
AISAT 29 Jun 23:12:54 23:16:52 34° 70° (ENE) 23:20:50 437.250
ESTCUBE 1 29 Jun 23:13:59 23:18:24 53° 73° (ENE) 23:22:50 437.505/2401.250
DX 1 29 Jun 23:27:55 23:31:54 36° 70° (ENE) 23:35:53 434.975-435.025
YUBILEINY 29 Jun 23:27:58 23:36:25 46° 74° (ENE) 23:44:47 435.215
RS-15 29 Jun 23:34:20 23:42:30 21° 262° (W) 23:50:38 29.354- 29.394
TIGRISAT 29 Jun 23:36:39 23:41:18 74° 285° (WNW) 23:45:59 435.000
50 SAT 29 Jun 23:37:14 23:40:55 63° 74° (ENE) 23:44:37 437.505
NANOSAT C BR1 29 Jun 23:37:51 23:40:51 19° 93° (E) 23:43:50 145.865
QB50P1 29 Jun 23:41:26 23:44:43 21° 94° (E) 23:48:00 145.935-145.965
UNISAT 6 29 Jun 23:42:19 23:46:56 61° 286° (WNW) 23:51:33 437.425
Cosmos 2504 29 Jun 23:44:21 23:50:22 20° 62° (ENE) 23:56:14 435.465 / 435.565
POPSAT HIP 1 29 Jun 23:44:42 23:48:06 23° 95° (E) 23:51:30 437.405
SO-50 29 Jun 23:51:43 23:55:55 32° 48° (NE) 00:00:00 436.795
CUBEBUG 1 29 Jun 23:55:52 00:00:14 79° 257° (WSW) 00:04:35 437.445
QB50P2 29 Jun 23:57:01 00:00:56 33° 98° (E) 00:04:48 145.880/145.840
DUCHIFAT 1 29 Jun 23:57:10 00:00:52 28° 96° (E) 00:04:32 145.980
POLYITAN 1 29 Jun 23:59:38 00:03:33 34° 97° (E) 00:07:28 437.675
VELOX 1 30 Jun 00:07:44 00:12:07 64° 259° (WSW) 00:16:30 145.980
TISAT 1 30 Jun 00:20:24 00:23:20 19° 66° (ENE) 00:26:17 437.305
ANTELSAT 30 Jun 00:22:45 00:26:31 25° 293° (WNW) 00:30:18 437.575/2403.000
Cosmos 2491 30 Jun 00:37:36 00:46:11 63° 92° (E) 00:54:45 435.465 / 435.565
SPROUT 30 Jun 00:39:41 00:43:54 66° 259° (W) 00:48:08 437.525
UKube-1 30 Jun 00:41:10 00:45:16 42° 261° (W) 00:49:22 .
BUGSAT 1 30 Jun 00:46:49 00:50:47 45° 99° (E) 00:54:46 437.445
AISAT 30 Jun 00:50:00 00:53:23 22° 265° (W) 00:56:47 437.250
ESTCUBE 1 30 Jun 00:53:01 00:55:31 14° 269° (W) 00:58:02 437.505/2401.250
DX 1 30 Jun 01:05:02 01:08:11 20° 266° (W) 01:11:21 434.975-435.025
NANOSAT C BR1 30 Jun 01:12:46 01:16:41 37° 289° (WNW) 01:20:36 145.865
QB50P1 30 Jun 01:16:44 01:20:32 32° 290° (WNW) 01:24:19 145.935-145.965
POPSAT HIP 1 30 Jun 01:20:10 01:23:53 30° 290° (WNW) 01:27:37 437.405
YUBILEINY 30 Jun 01:25:04 01:33:02 40° 274° (W) 01:40:59 435.215
SWISSCUBE 30 Jun 01:28:22 01:32:13 25° 66° (ENE) 01:36:06 437.505
SO-50 30 Jun 01:32:16 01:36:21 31° 246° (WSW) 01:40:18 436.795
DUCHIFAT 1 30 Jun 01:33:00 01:36:26 24° 292° (WNW) 01:39:51 145.980
QB50P2 30 Jun 01:33:18 01:36:31 21° 293° (WNW) 01:39:43 145.880/145.840
POLYITAN 1 30 Jun 01:35:57 01:39:09 21° 293° (WNW) 01:42:20 437.675
Cosmos 2504 30 Jun 01:36:09 01:45:06 88° 79° (ENE) 01:53:36 435.465 / 435.565
BEESAT 2 30 Jun 01:39:40 01:40:35 11° 108° (ESE) 01:41:30 435.950
PCSat 30 Jun 01:39:55 01:44:59 42° 112° (ESE) 01:50:06 145.827
JAS-2 30 Jun 01:48:59 01:54:37 89° 113° (ESE) 01:59:50 435.910
O/OREOS (USA 219) 30 Jun 01:49:00 01:52:12 19° 101° (E) 01:55:24 437.305
BEESAT 30 Jun 01:52:48 01:57:13 38° 69° (ENE) 02:01:38 436.000
Oscar 19 30 Jun 01:54:16 01:59:00 37° 98° (E) 02:03:43 437.125/150
ITUPSAT 1 30 Jun 01:54:49 01:59:16 39° 70° (ENE) 02:03:45 437.325
TISAT 1 30 Jun 01:54:55 01:58:44 36° 262° (W) 02:02:36 437.305
BUGSAT 1 30 Jun 02:23:24 02:25:48 15° 295° (WNW) 02:28:11 437.445
Gurwin Techsat 1B 30 Jun 02:23:28 02:28:10 31° 96° (E) 02:32:50 435.225
BEESAT 3 30 Jun 02:32:54 02:36:49 83° 121° (ESE) 02:40:47 437.485
Cosmos 2491 30 Jun 02:36:16 02:43:35 29° 292° (WNW) 02:50:56 435.465 / 435.565
SWISSCUBE 30 Jun 03:05:26 03:09:49 36° 262° (W) 03:14:15 437.505
BEESAT 2 30 Jun 03:13:55 03:17:51 65° 304° (NW) 03:21:49 435.950
PCSat 30 Jun 03:23:48 03:28:31 29° 310° (NW) 03:33:15 145.827
O/OREOS (USA 219) 30 Jun 03:27:05 03:31:18 39° 298° (WNW) 03:35:31 437.305
BEESAT 30 Jun 03:31:22 03:35:06 22° 266° (W) 03:38:51 436.000
Cosmos 2504 30 Jun 03:31:37 03:37:11 19° 283° (WNW) 03:42:39 435.465 / 435.565
GONETS M04 30 Jun 03:33:23 03:35:28 11° 55° (NE) 03:37:33
ITUPSAT 1 30 Jun 03:33:31 03:37:13 22° 266° (W) 03:40:57 437.325
Oscar 19 30 Jun 03:33:54 03:38:08 27° 294° (WNW) 03:42:22 437.125/150
JAS-2 30 Jun 03:36:38 03:38:44 12° 305° (NW) 03:40:47 435.910
KKS-1 30 Jun 03:53:05 03:57:29 81° 75° (ENE) 04:01:55 437.445
MOZHAYETS 4 30 Jun 03:54:51 03:59:28 74° 75° (ENE) 04:04:07
ITAMSAT 1 30 Jun 03:59:06 04:04:22 85° 103° (ESE) 04:09:36 435.822/435.867
Gurwin Techsat 1B 30 Jun 04:03:21 04:08:05 33° 292° (WNW) 04:12:48 435.225
AIST 2 30 Jun 04:10:02 04:13:26 25° 113° (ESE) 04:16:51 435.215
BEESAT 3 30 Jun 04:13:25 04:15:03 12° 320° (NW) 04:16:42 437.485
Cosmos 2499 30 Jun 04:16:50 04:21:25 15° 58° (ENE) 04:25:53 435.465 / 435.565
STARS 30 Jun 04:20:49 04:25:10 81° 75° (ENE) 04:29:33 437.465
AO-7 30 Jun 04:32:00 04:40:16 59° 103° (ESE) 04:48:29 29.400- 29.500
AIST 1 30 Jun 04:33:32 04:37:47 71° 264° (W) 04:42:00
HORYU 2 30 Jun 05:09:58 05:13:45 26° 96° (E) 05:17:30 437.375
AO-85 30 Jun 05:23:14 05:27:07 26° 46° (NE) 05:30:43 145.980
GONETS M04 30 Jun 05:25:51 05:34:28 59° 78° (ENE) 05:43:04
CUBESAT XI-V 30 Jun 05:26:52 05:31:34 80° 76° (ENE) 05:36:17 437.345
MOZHAYETS 4 30 Jun 05:36:04 05:37:08 11° 271° (W) 05:38:12
NOAA 15 30 Jun 05:38:00 05:38:58 10° 88° (E) 05:39:56 137.62
ITAMSAT 1 30 Jun 05:40:44 05:43:06 13° 301° (WNW) 05:45:27 435.822/435.867
AIST 2 30 Jun 05:48:07 05:51:47 31° 310° (NW) 05:55:30 435.215
STRAND 1 30 Jun 05:53:32 05:55:56 13° 59° (ENE) 05:58:20 437.568
PHONESAT 2.4 30 Jun 06:05:59 06:08:27 22° 154° (SSE) 06:10:56 2401.200-2431.200
Cosmos 2499 30 Jun 06:07:33 06:16:20 72° 80° (E) 06:24:32 435.465 / 435.565
BRITE-PL 30 Jun 06:10:52 06:13:55 20° 94° (E) 06:17:00 437.365/2234.400
CUSAT 1 30 Jun 06:14:03 06:19:13 20° 88° (E) 06:23:51 437.405
Cubesat XI-IV 30 Jun 06:18:45 06:22:44 21° 93° (E) 06:26:42 437.490
AO-7 30 Jun 06:25:24 06:32:36 33° 302° (WNW) 06:39:46 29.400- 29.500
NOAA 18 30 Jun 06:26:42 06:31:21 27° 95° (E) 06:35:59 137.9125
GOMX 1 30 Jun 06:35:48 06:38:36 17° 93° (E) 06:41:26 467.674
HORYU 2 30 Jun 06:46:22 06:50:16 29° 292° (WNW) 06:54:09 437.375
DANDE 30 Jun 06:51:32 06:57:35 23° 85° (E) 07:03:17 436.750
CUTE-I 30 Jun 06:51:44 06:56:51 42° 99° (E) 07:01:54 437.470
LilacSat-2 30 Jun 07:03:01 07:06:51 55° 100° (E) 07:10:40 437.200
AO-85 30 Jun 07:03:37 07:07:37 34° 246° (WSW) 07:11:19 145.980
NOAA 15 30 Jun 07:14:08 07:19:25 88° 289° (WNW) 07:24:40 137.62
GONETS M04 30 Jun 07:23:32 07:30:42 30° 277° (W) 07:37:54
ISS 30 Jun 07:24:40 07:26:51 17° 132° (SE) 07:29:04 145.825
DOVE 4 30 Jun 07:26:24 07:30:12 28° 97° (E) 07:34:09 437.250
STRAND 1 30 Jun 07:29:16 07:34:24 82° 256° (WSW) 07:39:36 437.568
PHONESAT 2.4 30 Jun 07:41:45 07:44:48 68° 170° (S) 07:47:51 2401.200-2431.200
PRISM 30 Jun 07:43:47 07:46:51 20° 67° (ENE) 07:49:55 437.425
BRITE-PL 30 Jun 07:48:49 07:52:31 31° 289° (WNW) 07:56:14 437.365/2234.400
CUSAT 1 30 Jun 07:53:10 08:00:54 76° 280° (W) 08:07:19 437.405
HO-68 30 Jun 07:53:47 07:59:12 22° 92° (E) 08:04:34 435.675
Cubesat XI-IV 30 Jun 07:57:52 08:03:04 50° 289° (WNW) 08:08:14 437.490
Cosmos 2499 30 Jun 08:02:04 08:08:30 24° 280° (W) 08:14:40 435.465 / 435.565
NOAA 18 30 Jun 08:06:55 08:12:06 42° 292° (WNW) 08:17:17 137.9125
CINEMA 3 30 Jun 08:09:04 08:12:52 25° 95° (E) 08:16:46 145.822/145.860
GOMX 1 30 Jun 08:12:54 08:16:51 40° 287° (WNW) 08:20:57 467.674
COMPASS 1 30 Jun 08:28:07 08:30:38 15° 92° (E) 08:33:08 437.405
DANDE 30 Jun 08:31:20 08:39:47 80° 279° (W) 08:47:28 436.750
CUTE-I 30 Jun 08:32:17 08:36:39 26° 295° (WNW) 08:41:00 437.470
CANX-2 30 Jun 08:32:18 08:36:22 40° 98° (E) 08:40:23 2200.000
LilacSat-2 30 Jun 08:39:19 08:40:41 12° 296° (WNW) 08:42:02 437.200
UWE-3 30 Jun 08:40:08 08:41:10 11° 89° (E) 08:42:13 435.000/436.395/437.385
CUTE 1.7 + AOD 2 30 Jun 08:51:49 08:56:04 59° 100° (E) 09:00:15 437.475
SEEDS 30 Jun 08:52:32 08:56:35 42° 98° (E) 09:00:34 437.485
NOAA 15 30 Jun 08:56:26 08:58:23 12° 302° (WNW) 09:00:21 137.62
ISS 30 Jun 08:59:49 09:03:01 53° 327° (NNW) 09:06:14 145.825
DOVE 4 30 Jun 09:04:11 09:07:50 27° 290° (WNW) 09:11:38 437.250
UNISAT 6 30 Jun 09:07:31 09:09:04 12° 61° (ENE) 09:10:37 437.425
PRISM 30 Jun 09:18:11 09:21:57 33° 262° (W) 09:25:43 437.425
PHONESAT 2.4 30 Jun 09:18:18 09:21:22 75° 187° (S) 09:24:26 2401.200-2431.200
AAUSAT CUBESAT 2 30 Jun 09:26:16 09:30:23 57° 100° (E) 09:34:27 437.432
CUBEBUG 2 30 Jun 09:30:04 09:34:38 55° 100° (E) 09:39:16 437.445
M-CUBED/EXP-1 PRIME 30 Jun 09:36:48 09:40:20 29° 103° (ESE) 09:44:05 437.505
RS-15 30 Jun 09:38:05 09:42:56 14° 94° (E) 09:47:50 29.354- 29.394
CUSAT 1 30 Jun 09:40:11 09:43:34 14° 294° (WNW) 09:46:44 437.405
HO-68 30 Jun 09:40:17 09:47:26 68° 290° (WNW) 09:54:34 435.675
ANTELSAT 30 Jun 09:44:44 09:48:25 28° 69° (ENE) 09:52:12 437.575/2403.000
CINEMA 3 30 Jun 09:45:54 09:50:00 33° 289° (WNW) 09:54:15 145.822/145.860
ZACube-1 30 Jun 09:48:21 09:52:38 38° 98° (E) 09:56:55 437.345
Oscar 11 30 Jun 09:54:38 09:58:50 46° 99° (E) 10:03:01 145.826/435.025
COMPASS 1 30 Jun 10:02:25 10:06:24 42° 288° (WNW) 10:10:20 437.405
FUNcube-1 30 Jun 10:04:43 10:09:12 55° 100° (E) 10:13:41 145.935
CANX-2 30 Jun 10:09:00 10:11:55 18° 294° (WNW) 10:14:48 2200.000
UWE-3 30 Jun 10:13:29 10:18:06 75° 284° (WNW) 10:22:45 435.000/436.395/437.385
DANDE 30 Jun 10:18:20 10:23:31 18° 296° (WNW) 10:28:24 436.750
PCSat 30 Jun 10:27:45 10:32:43 35° 52° (NE) 10:37:38 145.827
SEEDS 30 Jun 10:29:11 10:31:56 17° 294° (WNW) 10:34:40 437.485
CUTE 1.7 + AOD 2 30 Jun 10:29:26 10:31:24 13° 297° (WNW) 10:33:21 437.475
AUBIESAT-1 30 Jun 10:29:51 10:33:50 81° 289° (WNW) 10:38:08 437.475
NANOSAT C BR1 30 Jun 10:30:49 10:33:03 14° 64° (ENE) 10:35:18 145.865
QB50P1 30 Jun 10:34:30 10:37:08 17° 65° (ENE) 10:39:48 145.935-145.965
TIGRISAT 30 Jun 10:35:01 10:39:19 86° 256° (WSW) 10:43:45 435.000
POPSAT HIP 1 30 Jun 10:37:44 10:40:32 18° 65° (ENE) 10:43:20 437.405
ISS 30 Jun 10:37:55 10:40:01 16° 347° (NNW) 10:42:09 145.825
